Tracking 35055 objects as of 18-Aug-2026
HD Live streaming from Space Station
objects crossing your sky now

DELTA 4 DEB


DELTA 4 DEB is no longer on orbit


NORAD ID: 29598
Int'l Code: 2006-050BQ
Launch date: November 4, 2006
Source: United States (US)
Launch site: AIR FORCE WESTERN TEST RANGE (AFWTR)
Decay date: 2011-08-22

Note: This is SATELLITE DEBRIS
Your satellite tracking list
Your tracking list is empty




NASA's NSSDC Master Catalog

Two Line Element Set (TLE):
1 29598U 06050BQ  11234.22926606  .19109227  00000-0  71894-1 0  9999
2 29598 099.3189 322.9174 0030501 281.7138 079.2252 15.81074907252087
Source of the keplerian elements: AFSPC